FW2670 Weather Reports


time (UTC)temp
C
wind
direction
speed
KPH
gust
KPH
rain 1hr
cm
rain 24hr
cm
rain mn
cm
humidity
%
barometer
mb
20260905173128 32 200 1.6 9.7 0.00 0.00 0.00 58 1012.5
20260905173040 32 197 1.6 9.7 0.00 0.00 0.00 58 1014.0
20260905172530 32 192 4.8 9.7 0.00 0.00 0.00 58 1014.1
20260905172103 32 194 3.2 9.7 0.00 0.00 0.00 58 1014.3
20260905171608 31 207 3.2 8.0 0.00 0.00 0.00 60 1012.9
20260905171532 31 201 1.6 6.4 0.00 0.00 0.00 60 1014.4
20260905171036 31 124 3.2 9.7 0.00 0.00 0.00 61 1014.4
20260905170547 32 200 3.2 9.7 0.00 0.00 0.00 61 1014.5
20260905170135 31 209 0.0 4.8 0.00 0.00 0.00 60 1013.1
20260905170055 31 197 0.0 4.8 0.00 0.00 0.00 60 1014.5
20260905165537 31 180 1.6 8.0 0.00 0.00 0.00 61 1014.5
20260905165100 31 192 1.6 8.0 0.00 0.00 0.00 60 1014.6
20260905164614 31 112 3.2 8.0 0.00 0.00 0.00 61 1013.1
20260905164528 31 199 3.2 8.0 0.00 0.00 0.00 63 1014.6
20260905164027 31 103 1.6 6.4 0.00 0.00 0.00 61 1014.6
20260905163553 30 103 3.2 4.8 0.00 0.00 0.00 61 1014.6
20260905163102 30 102 1.6 11.3 0.00 0.00 0.00 62 1013.0
20260905163029 30 102 3.2 11.3 0.00 0.00 0.00 62 1014.4
20260905162532 30 202 3.2 8.0 0.00 0.00 0.00 64 1014.5
20260905162028 30 107 3.2 6.4 0.00 0.00 0.00 65 1014.5
20260905161646 30 107 1.6 6.4 0.00 0.00 0.00 65 1013.2
20260905161611 30 107 1.6 6.4 0.00 0.00 0.00 65 1014.6
20260905161026 30 107 3.2 9.7 0.00 0.00 0.00 65 1014.8
20260905160610 30 111 4.8 9.7 0.00 0.00 0.00 66 1015.0
20260905160055 30 115 3.2 4.8 0.00 0.00 0.00 66 1015.0
20260905160002 29 145 1.6 3.2 0.00 0.00 0.00 66 1013.6
20260905155537 29 145 1.6 3.2 0.00 0.00 0.00 68 1015.0
20260905155037 29 144 1.6 3.2 0.00 0.00 0.00 69 1015.1
20260905154528 28 143 1.6 6.4 0.00 0.00 0.00 67 1015.2
20260905154504 28 143 0.0 6.4 0.00 0.00 0.00 67 1013.8
20260905154032 28 140 3.2 6.4 0.00 0.00 0.00 67 1015.2
20260905153545 28 74 3.2 6.4 0.00 0.00 0.00 68 1015.2
20260905153124 28 105 3.2 9.7 0.00 0.00 0.00 67 1013.6
20260905153042 28 119 3.2 9.7 0.00 0.00 0.00 67 1015.0
20260905152531 28 160 3.2 6.4 0.00 0.00 0.00 68 1014.9
20260905152101 28 111 3.2 11.3 0.00 0.00 0.00 67 1014.9
20260905151624 28 199 3.2 11.3 0.00 0.00 0.00 65 1013.5
20260905151551 28 202 3.2 11.3 0.00 0.00 0.00 66 1014.9
20260905151052 28 182 1.6 4.8 0.00 0.00 0.00 68 1015.0
20260905150552 28 176 3.2 4.8 0.00 0.00 0.00 71 1015.1
20260905150144 27 104 1.6 6.4 0.00 0.00 0.00 72 1013.8
20260905150105 27 104 1.6 6.4 0.00 0.00 0.00 72 1015.2
20260905145533 27 103 4.8 6.4 0.00 0.00 0.00 70 1015.2
20260905145032 27 109 3.2 9.7 0.00 0.00 0.00 72 1015.3
20260905144622 27 109 3.2 9.7 0.00 0.00 0.00 72 1014.0
20260905144539 27 109 4.8 9.7 0.00 0.00 0.00 71 1015.4
20260905144043 27 117 4.8 6.4 0.00 0.00 0.00 71 1015.5
20260905143552 27 111 3.2 9.7 0.00 0.00 0.00 72 1015.5
20260905143106 26 109 3.2 11.3 0.00 0.00 0.00 72 1014.1
20260905143029 27 123 3.2 12.9 0.00 0.00 0.00 72 1015.5
20260905142539 27 107 6.4 12.9 0.00 0.00 0.00 72 1015.6
20260905142042 26 113 3.2 11.3 0.00 0.00 0.00 74 1015.5
20260905141604 26 107 4.8 14.5 0.00 0.00 0.00 75 1014.0
20260905141551 26 118 6.4 14.5 0.00 0.00 0.00 75 1015.4
20260905141042 26 123 4.8 17.7 0.00 0.00 0.00 76 1015.5
20260905140550 26 101 8.0 17.7 0.00 0.00 0.00 76 1015.4
20260905140142 25 101 3.2 14.5 0.00 0.00 0.00 79 1014.1
20260905140058 26 105 4.8 14.5 0.00 0.00 0.00 79 1015.5
20260905135527 26 103 6.4 12.9 0.00 0.00 0.00 80 1015.5
20260905135049 26 119 4.8 16.1 0.00 0.00 0.00 81 1015.5
20260905134552 26 103 4.8 16.1 0.00 0.00 0.00 81 1015.6
20260905134508 25 103 4.8 16.1 0.00 0.00 0.00 81 1014.2
20260905134053 26 104 6.4 12.9 0.00 0.00 0.00 81 1015.8
20260905133607 26 108 6.4 14.5 0.00 0.00 0.00 80 1015.9
20260905133118 25 110 8.0 14.5 0.00 0.00 0.00 81 1014.4
20260905133054 26 102 8.0 14.5 0.00 0.00 0.00 82 1015.9
20260905132531 25 101 4.8 12.9 0.00 0.00 0.00 86 1015.8
20260905132055 25 108 4.8 6.4 0.00 0.00 0.00 88 1015.7
20260905131546 25 92 3.2 6.4 0.00 0.00 0.00 90 1015.8
20260905131506 25 92 1.6 6.4 0.00 0.00 0.00 90 1014.4
20260905131035 25 92 1.6 3.2 0.00 0.00 0.00 92 1015.9
20260905130610 24 92 0.0 1.6 0.00 0.00 0.00 93 1015.8
20260905130016 23 99 0.0 6.4 0.00 0.00 0.00 94 1014.3
20260905125531 23 99 3.2 9.7 0.00 0.00 0.00 94 1015.4
20260905125033 23 86 6.4 9.7 0.00 0.00 0.00 94 1015.3
20260905124543 23 189 0.0 0.0 0.00 0.00 0.00 94 1013.5
20260905124524 23 189 0.0 0.0 0.00 0.00 0.00 94 1014.9
20260905124030 23 189 0.0 0.0 0.00 0.00 0.00 94 1014.9
20260905123537 23 189 0.0 0.0 0.00 0.00 0.00 94 1014.7
20260905123045 23 189 0.0 0.0 0.00 0.00 0.00 94 1014.7
20260905123008 23 189 0.0 0.0 0.00 0.00 0.00 94 1013.3
20260905122534 23 189 0.0 0.0 0.00 0.00 0.00 94 1014.7
20260905122037 23 189 0.0 0.0 0.00 0.00 0.00 94 1014.6
20260905121544 23 189 0.0 0.0 0.00 0.00 0.00 94 1013.3
20260905121527 23 189 0.0 0.0 0.00 0.00 0.00 94 1014.7
20260905121029 23 189 0.0 0.0 0.00 0.00 0.00 94 1014.6
20260905120611 23 189 0.0 0.0 0.00 0.00 0.00 94 1014.6
20260905120117 22 189 0.0 0.0 0.00 0.00 0.00 94 1013.1
20260905120056 23 189 0.0 0.0 0.00 0.00 0.00 94 1014.6
20260905115526 23 189 0.0 0.0 0.00 0.00 0.00 94 1014.6
20260905115058 22 189 0.0 0.0 0.00 0.00 0.00 94 1014.6
20260905114639 22 189 0.0 0.0 0.00 0.00 0.00 94 1013.2
20260905114548 22 189 0.0 0.0 0.00 0.00 0.00 94 1014.6
20260905114026 22 189 0.0 0.0 0.00 0.00 0.00 94 1014.6
20260905113610 22 189 0.0 0.0 0.00 0.00 0.00 94 1014.5
20260905113113 22 189 0.0 0.0 0.00 0.00 0.00 94 1013.0
20260905113035 22 189 0.0 0.0 0.00 0.00 0.00 94 1014.4
20260905112542 22 190 0.0 0.0 0.00 0.00 0.00 94 1014.3
20260905112047 22 190 0.0 0.0 0.00 0.00 0.00 94 1014.2
20260905111632 22 190 0.0 0.0 0.00 0.00 0.00 94 1012.7
20260905111610 22 190 0.0 0.0 0.00 0.00 0.00 94 1014.2
20260905111025 22 190 0.0 0.0 0.00 0.00 0.00 94 1014.1
20260905110611 23 190 0.0 0.0 0.00 0.00 0.00 94 1014.1
20260905110106 23 190 0.0 0.0 0.00 0.00 0.00 94 1014.0
20260905110006 22 190 0.0 0.0 0.00 0.00 0.00 94 1012.6
20260905105528 23 190 0.0 0.0 0.00 0.00 0.00 94 1013.9
20260905105034 23 190 0.0 0.0 0.00 0.00 0.00 94 1013.9
20260905104545 23 190 0.0 0.0 0.00 0.00 0.00 94 1013.9
20260905104503 22 190 0.0 0.0 0.00 0.00 0.00 94 1012.4
20260905104040 23 190 0.0 0.0 0.00 0.00 0.00 94 1013.8
20260905103530 23 190 0.0 0.0 0.00 0.00 0.00 94 1013.8
20260905103126 23 190 0.0 0.0 0.00 0.00 0.00 94 1012.4
20260905103038 23 190 0.0 0.0 0.00 0.00 0.00 94 1013.9
20260905102547 23 190 0.0 0.0 0.00 0.00 0.00 94 1013.9
20260905102053 23 190 0.0 0.0 0.00 0.00 0.00 94 1014.0
20260905101603 23 190 0.0 0.0 0.00 0.00 0.00 94 1012.6
20260905101525 23 190 0.0 0.0 0.00 0.00 0.00 94 1014.1
20260905101059 23 190 0.0 0.0 0.00 0.00 0.00 94 1014.1
20260905100550 23 190 0.0 0.0 0.00 0.00 0.00 94 1014.0
20260905100125 23 190 0.0 0.0 0.00 0.00 0.00 94 1012.6
20260905100056 23 190 0.0 0.0 0.00 0.00 0.00 94 1014.0
20260905095548 23 190 0.0 0.0 0.00 0.00 0.00 94 1014.0
20260905095025 23 190 0.0 0.0 0.00 0.00 0.00 94 1013.9
20260905094605 23 190 0.0 0.0 0.00 0.00 0.00 94 1012.5
20260905094553 23 190 0.0 0.0 0.00 0.00 0.00 94 1013.9
20260905094036 23 190 0.0 0.0 0.00 0.00 0.00 94 1013.9
20260905093548 23 190 0.0 0.0 0.00 0.00 0.00 94 1013.9
20260905093027 23 190 0.0 0.0 0.00 0.00 0.00 94 1013.8
20260905093002 23 190 0.0 0.0 0.00 0.00 0.00 94 1012.3
20260905092611 23 190 0.0 0.0 0.00 0.00 0.00 94 1013.8
20260905092027 23 190 0.0 0.0 0.00 0.00 0.00 94 1013.7
20260905091612 23 190 0.0 0.0 0.00 0.00 0.00 94 1012.3
20260905091534 23 190 0.0 0.0 0.00 0.00 0.00 94 1013.7
20260905091040 23 190 0.0 0.0 0.00 0.00 0.00 94 1013.7
20260905090552 23 190 0.0 0.0 0.00 0.00 0.00 94 1013.7
20260905090117 23 190 0.0 0.0 0.00 0.00 0.00 94 1012.2
20260905090106 23 190 0.0 0.0 0.00 0.00 0.00 94 1013.7
20260905085534 23 190 0.0 0.0 0.00 0.00 0.00 94 1013.6
20260905085036 23 190 0.0 0.0 0.00 0.00 0.00 94 1013.6
20260905084554 23 190 0.0 0.0 0.00 0.00 0.00 93 1012.1
20260905084529 23 190 0.0 0.0 0.00 0.00 0.00 93 1013.5
20260905084036 23 190 0.0 0.0 0.00 0.00 0.00 93 1013.5
20260905083544 23 190 0.0 0.0 0.00 0.00 0.00 93 1013.5
20260905083039 23 190 0.0 0.0 0.00 0.00 0.00 93 1013.4
20260905083019 23 190 0.0 0.0 0.00 0.00 0.00 93 1012.0
20260905082530 23 190 0.0 0.0 0.00 0.00 0.00 93 1013.3
20260905082035 23 190 0.0 0.0 0.00 0.00 0.00 93 1013.3
20260905081547 23 190 0.0 0.0 0.00 0.00 0.00 93 1013.3
20260905081529 23 190 0.0 0.0 0.00 0.00 0.00 93 1011.9
20260905081025 23 190 0.0 0.0 0.00 0.00 0.00 93 1013.3
20260905080557 23 190 0.0 0.0 0.00 0.00 0.00 93 1013.2
20260905080136 23 190 0.0 0.0 0.00 0.00 0.00 93 1011.7
20260905080123 23 190 0.0 0.0 0.00 0.00 0.00 93 1013.2
20260905075532 23 190 0.0 0.0 0.00 0.00 0.00 93 1013.3
20260905075030 23 190 0.0 0.0 0.00 0.00 0.00 93 1013.2
20260905074652 23 190 0.0 0.0 0.00 0.00 0.00 93 1011.8
20260905074613 23 190 0.0 0.0 0.00 0.00 0.00 93 1013.2
20260905074028 23 190 0.0 0.0 0.00 0.00 0.00 93 1013.3
20260905073613 23 190 0.0 0.0 0.00 0.00 0.00 93 1013.3
20260905073118 23 190 0.0 0.0 0.00 0.00 0.00 93 1011.9
20260905073100 23 190 0.0 0.0 0.00 0.00 0.00 93 1013.3
20260905072526 23 190 0.0 0.0 0.00 0.00 0.00 93 1013.4
20260905072058 24 190 0.0 0.0 0.00 0.00 0.00 93 1013.5
20260905071550 24 190 0.0 0.0 0.00 0.00 0.00 93 1013.5
20260905071510 23 190 0.0 0.0 0.00 0.00 0.00 93 1012.1
20260905071045 24 190 0.0 0.0 0.00 0.00 0.00 93 1013.6
20260905070550 24 190 0.0 0.0 0.00 0.00 0.00 93 1013.7
20260905070149 23 190 0.0 0.0 0.00 0.00 0.00 93 1012.4
20260905070100 24 190 0.0 0.0 0.00 0.00 0.00 93 1013.8
20260905065548 24 190 0.0 0.0 0.00 0.00 0.00 93 1013.8
20260905065026 24 190 0.0 0.0 0.00 0.00 0.00 93 1013.8
20260905064635 24 190 0.0 0.0 0.00 0.00 0.00 93 1012.4
20260905064537 24 190 0.0 0.0 0.00 0.00 0.00 93 1013.8
20260905064041 24 190 0.0 0.0 0.00 0.00 0.00 93 1013.9
20260905063532 24 190 0.0 0.0 0.00 0.00 0.00 93 1013.9
20260905063122 24 190 0.0 0.0 0.00 0.00 0.00 93 1012.5
20260905063038 24 190 0.0 0.0 0.00 0.00 0.00 93 1014.0
20260905062546 24 190 0.0 0.0 0.00 0.00 0.00 93 1013.9
20260905062051 24 190 0.0 0.0 0.00 0.00 0.00 92 1014.0
20260905061618 24 190 0.0 0.0 0.00 0.00 0.00 92 1012.7
20260905061533 24 190 0.0 0.0 0.00 0.00 0.00 92 1014.1
20260905061037 24 190 0.0 0.0 0.00 0.00 0.00 92 1014.2
20260905060549 24 190 0.0 0.0 0.00 0.00 0.00 92 1014.3
20260905060118 24 190 0.0 0.0 0.00 0.00 0.00 92 1012.8
20260905060058 24 190 0.0 0.0 0.00 0.00 0.00 92 1014.2
20260905055526 24 190 0.0 0.0 0.00 0.00 0.00 92 1014.3
20260905055029 24 190 0.0 0.0 0.00 0.00 0.00 92 1014.3
20260905054557 24 190 0.0 0.0 0.00 0.00 0.00 92 1012.9
20260905054536 24 190 0.0 0.0 0.00 0.00 0.00 92 1014.3
20260905054035 24 190 0.0 0.0 0.00 0.00 0.00 92 1014.3
20260905053547 25 190 0.0 0.0 0.00 0.00 0.00 92 1014.3
20260905053043 24 190 0.0 0.0 0.00 0.00 0.00 92 1014.3
20260905053016 24 190 0.0 0.0 0.00 0.00 0.00 92 1012.9
20260905052533 24 190 0.0 0.0 0.00 0.00 0.00 92 1014.3
20260905052039 24 190 0.0 0.0 0.00 0.00 0.00 92 1014.4
20260905051550 24 190 0.0 0.0 0.00 0.00 0.00 92 1013.0
20260905051530 24 190 0.0 0.0 0.00 0.00 0.00 92 1014.4
20260905051028 25 190 0.0 0.0 0.00 0.00 0.00 92 1014.4
20260905050539 25 190 0.0 0.0 0.00 0.00 0.00 92 1014.4
20260905050100 25 190 0.0 0.0 0.00 0.00 0.00 92 1014.4
20260905050002 24 190 0.0 0.0 0.00 0.00 0.00 92 1013.0
20260905045529 25 190 0.0 0.0 0.00 0.00 0.00 92 1014.5
20260905045033 25 190 0.0 0.0 0.00 0.00 0.00 92 1014.5
20260905044636 24 190 0.0 0.0 0.00 0.00 0.00 91 1013.1
20260905044608 25 190 0.0 0.0 0.00 0.00 0.00 91 1014.5
20260905044042 25 190 0.0 0.0 0.00 0.00 0.00 91 1014.4
20260905043530 25 190 0.0 0.0 0.00 0.00 0.00 91 1014.5
20260905043115 24 190 0.0 0.0 0.00 0.00 0.00 91 1013.0
20260905043034 25 190 0.0 0.0 0.00 0.00 0.00 91 1014.4
20260905042524 25 190 0.0 0.0 0.00 0.00 0.00 91 1014.4
20260905042050 25 190 0.0 0.0 0.00 0.00 0.00 91 1014.4
20260905041534 25 190 0.0 0.0 0.00 0.00 0.00 91 1014.4
20260905041508 25 190 0.0 0.0 0.00 0.00 0.00 91 1013.0
20260905041037 25 190 0.0 0.0 0.00 0.00 0.00 91 1014.5
20260905040527 25 190 0.0 0.0 0.00 0.00 0.00 90 1014.4
20260905040123 25 190 0.0 0.0 0.00 0.00 0.00 90 1013.0
20260905040104 25 190 0.0 0.0 0.00 0.00 0.00 90 1014.4
20260905035524 25 190 0.0 0.0 0.00 0.00 0.00 90 1014.4
20260905035049 25 190 0.0 0.0 0.00 0.00 0.00 90 1014.4
20260905034549 25 190 0.0 0.0 0.00 0.00 0.00 90 1013.0
20260905034532 25 190 0.0 0.0 0.00 0.00 0.00 90 1014.4
20260905034037 25 190 0.0 0.0 0.00 0.00 0.00 90 1014.5
20260905033529 25 190 0.0 0.0 0.00 0.00 0.00 90 1014.4
20260905033052 25 190 0.0 0.0 0.00 0.00 0.00 89 1013.0
20260905033033 25 190 0.0 0.0 0.00 0.00 0.00 89 1014.4
20260905032537 25 190 0.0 0.0 0.00 0.00 0.00 89 1014.4
20260905032050 25 190 0.0 0.0 0.00 0.00 0.00 89 1014.5
20260905031657 25 190 0.0 0.0 0.00 0.00 0.00 89 1013.0
20260905031531 25 190 0.0 0.0 0.00 0.00 0.00 89 1014.4
20260905031056 25 190 0.0 0.0 0.00 0.00 0.00 89 1014.4
20260905030548 25 190 0.0 0.0 0.00 0.00 0.00 89 1014.5
20260905030101 25 190 0.0 0.0 0.00 0.00 0.00 89 1014.5
20260905030009 25 190 0.0 0.0 0.00 0.00 0.00 89 1013.0
20260905025532 26 190 0.0 0.0 0.00 0.00 0.00 89 1014.5
20260905025050 26 190 0.0 0.0 0.00 0.00 0.00 89 1014.5
20260905024533 26 190 0.0 0.0 0.00 0.00 0.00 88 1014.5
20260905024509 25 190 0.0 0.0 0.00 0.00 0.00 88 1013.1
20260905024039 26 190 0.0 0.0 0.00 0.00 0.00 88 1014.6
20260905023530 26 190 0.0 0.0 0.00 0.00 0.00 88 1014.6
20260905023037 26 190 0.0 0.0 0.00 0.00 0.00 88 1014.5
20260905023011 26 190 0.0 0.0 0.00 0.00 0.00 88 1013.1
20260905022548 26 190 0.0 0.0 0.00 0.00 0.00 88 1014.5
20260905022025 26 190 0.0 0.0 0.00 0.00 0.00 88 1014.4
20260905021535 26 190 0.0 0.0 0.00 0.00 0.00 87 1014.4
20260905021508 26 190 0.0 0.0 0.00 0.00 0.00 87 1012.9
20260905021040 26 190 0.0 0.0 0.00 0.00 0.00 87 1014.3
20260905020533 26 190 0.0 0.0 0.00 0.00 0.00 86 1014.4
20260905020142 26 190 0.0 0.0 0.00 0.00 0.00 86 1012.8
20260905020104 26 190 0.0 0.0 0.00 0.00 0.00 86 1014.2
20260905015533 26 190 0.0 0.0 0.00 0.00 0.00 86 1014.2
20260905015034 26 190 0.0 0.0 0.00 0.00 0.00 85 1014.2
20260905014600 26 190 0.0 0.0 0.00 0.00 0.00 85 1012.7
20260905014524 26 190 0.0 0.0 0.00 0.00 0.00 85 1014.1
20260905014030 27 190 0.0 0.0 0.00 0.00 0.00 85 1014.1
20260905013603 27 190 0.0 0.0 0.00 0.00 0.00 84 1014.1
20260905013102 27 190 0.0 0.0 0.00 0.00 0.00 84 1014.1
20260905013001 27 190 0.0 0.0 0.00 0.00 0.00 84 1012.6
20260905012532 27 190 0.0 0.0 0.00 0.00 0.00 84 1014.0
20260905012102 27 190 0.0 0.0 0.00 0.00 0.00 83 1014.0
20260905011612 27 190 0.0 0.0 0.00 0.00 0.00 82 1012.5
20260905011531 27 190 0.0 0.0 0.00 0.00 0.00 82 1014.0
20260905011036 27 190 0.0 0.0 0.00 0.00 0.00 82 1013.9
20260905010529 28 190 0.0 0.0 0.00 0.00 0.00 81 1014.0
20260905010114 28 190 0.0 0.0 0.00 0.00 0.00 82 1012.5
20260905010058 28 190 0.0 0.0 0.00 0.00 0.00 82 1013.9
20260905005525 28 190 0.0 0.0 0.00 0.00 0.00 82 1013.9
20260905005042 28 190 0.0 0.0 0.00 0.00 0.00 81 1013.8
20260905004638 28 190 0.0 0.0 0.00 0.00 0.00 80 1012.3
20260905004554 28 190 0.0 0.0 0.00 0.00 0.00 80 1013.8
20260905004031 28 190 0.0 0.0 0.00 0.00 0.00 80 1013.8
20260905003602 29 190 0.0 0.0 0.00 0.00 0.00 79 1013.7
20260905003115 28 190 0.0 0.0 0.00 0.00 0.00 78 1012.2
20260905003101 29 190 0.0 0.0 0.00 0.00 0.00 78 1013.6
20260905002529 29 190 0.0 0.0 0.00 0.00 0.00 77 1013.6
20260905002034 30 190 0.0 0.0 0.00 0.00 0.00 77 1013.5
20260905001601 30 190 0.0 0.0 0.00 0.00 0.00 76 1012.1
20260905001538 30 190 0.0 0.0 0.00 0.00 0.00 76 1013.6
20260905001043 30 190 0.0 0.0 0.00 0.00 0.00 75 1013.5
20260905000535 31 190 0.0 0.0 0.00 0.00 0.00 75 1013.4
20260905000109 31 190 0.0 0.0 0.00 0.00 0.00 74 1012.0
20260905000050 31 190 0.0 0.0 0.00 0.00 0.00 74 1013.4
20260904235537 31 190 0.0 0.0 0.00 0.00 0.00 73 1013.5
20260904235115 32 190 0.0 0.0 0.00 0.00 0.00 70 1013.5
20260904234633 32 190 0.0 0.0 0.00 0.00 0.00 69 1012.2
20260904234537 32 190 0.0 0.0 0.00 0.00 0.00 69 1013.6
20260904234042 32 190 0.0 0.0 0.00 0.00 0.00 69 1013.6
20260904233534 33 190 0.0 0.0 0.00 0.00 0.00 68 1013.5
20260904233131 32 190 0.0 0.0 0.00 0.00 0.00 67 1012.1
20260904233041 33 190 0.0 0.0 0.00 0.00 0.00 67 1013.6
20260904232551 33 190 0.0 0.0 0.00 0.00 0.00 65 1013.5
20260904232053 33 190 0.0 1.6 0.00 0.00 0.00 66 1013.5
20260904231617 33 190 0.0 1.6 0.00 0.00 0.00 65 1012.0
20260904231554 33 190 0.0 1.6 0.00 0.00 0.00 64 1013.5
20260904231039 33 190 0.0 1.6 0.00 0.00 0.00 63 1013.4
20260904230547 33 190 0.0 1.6 0.00 0.00 0.00 60 1013.5
20260904230145 33 190 0.0 3.2 0.00 0.00 0.00 59 1012.1
20260904230101 34 190 0.0 3.2 0.00 0.00 0.00 59 1013.5
20260904225551 34 190 1.6 3.2 0.00 0.00 0.00 58 1013.5
20260904225027 34 190 0.0 3.2 0.00 0.00 0.00 57 1013.5
20260904224535 35 190 0.0 3.2 0.00 0.00 0.00 57 1013.5
20260904224501 34 190 0.0 3.2 0.00 0.00 0.00 57 1012.0
20260904224040 35 190 0.0 3.2 0.00 0.00 0.00 55 1013.5
20260904223531 35 190 0.0 6.4 0.00 0.00 0.00 55 1013.6
20260904223039 35 190 1.6 6.4 0.00 0.00 0.00 54 1013.5
20260904223003 35 190 1.6 6.4 0.00 0.00 0.00 54 1012.0
20260904222549 35 145 1.6 4.8 0.00 0.00 0.00 51 1013.5
20260904222053 36 260 0.0 4.8 0.00 0.00 0.00 50 1013.6
20260904221553 36 260 1.6 4.8 0.00 0.00 0.00 49 1012.2
20260904221540 36 271 1.6 4.8 0.00 0.00 0.00 49 1013.7
20260904221026 36 299 0.0 3.2 0.00 0.00 0.00 46 1013.8
20260904220609 36 299 0.0 1.6 0.00 0.00 0.00 49 1013.8
20260904220145 36 299 0.0 1.6 0.00 0.00 0.00 46 1012.4
20260904220056 36 299 1.6 1.6 0.00 0.00 0.00 48 1013.9
20260904215537 36 299 0.0 6.4 0.00 0.00 0.00 46 1013.9
20260904215044 36 299 3.2 6.4 0.00 0.00 0.00 46 1013.9
20260904214633 36 299 0.0 6.4 0.00 0.00 0.00 45 1012.4
20260904214556 36 299 3.2 6.4 0.00 0.00 0.00 45 1013.9
20260904214036 36 299 1.6 6.4 0.00 0.00 0.00 46 1013.8
20260904213548 36 197 1.6 4.8 0.00 0.00 0.00 46 1013.9
20260904213054 36 286 1.6 8.0 0.00 0.00 0.00 46 1013.9
20260904213029 36 286 1.6 8.0 0.00 0.00 0.00 46 1012.4
20260904212534 36 309 3.2 9.7 0.00 0.00 0.00 46 1013.9
20260904212040 36 278 1.6 6.4 0.00 0.00 0.00 47 1014.0
20260904211602 36 226 1.6 4.8 0.00 0.00 0.00 46 1012.5
20260904211528 36 226 1.6 4.8 0.00 0.00 0.00 46 1014.0
20260904211030 36 223 0.0 6.4 0.00 0.00 0.00 49 1014.0
20260904210535 36 217 0.0 8.0 0.00 0.00 0.00 49 1014.0
20260904210138 36 233 1.6 8.0 0.00 0.00 0.00 48 1012.5
20260904210126 36 170 1.6 6.4 0.00 0.00 0.00 49 1014.1
20260904205553 36 290 3.2 6.4 0.00 0.00 0.00 48 1014.1
20260904205037 36 265 3.2 6.4 0.00 0.00 0.00 48 1014.2
20260904204540 36 279 1.6 9.7 0.00 0.00 0.00 50 1012.6
20260904204528 36 279 3.2 9.7 0.00 0.00 0.00 50 1014.1
20260904204031 36 202 4.8 9.7 0.00 0.00 0.00 48 1014.3
20260904203537 36 201 1.6 8.0 0.00 0.00 0.00 49 1014.3
20260904203043 36 275 3.2 9.7 0.00 0.00 0.00 48 1014.3
20260904203002 36 275 3.2 9.7 0.00 0.00 0.00 48 1012.8
20260904202533 36 199 4.8 14.5 0.00 0.00 0.00 51 1014.4
20260904202041 36 205 1.6 14.5 0.00 0.00 0.00 51 1014.5
20260904201612 36 177 3.2 12.9 0.00 0.00 0.00 50 1013.0
20260904201553 36 180 4.8 12.9 0.00 0.00 0.00 50 1014.5
20260904201049 36 205 3.2 9.7 0.00 0.00 0.00 52 1014.7
20260904200536 36 212 1.6 6.4 0.00 0.00 0.00 53 1014.7
20260904200130 35 289 0.0 11.3 0.00 0.00 0.00 52 1013.2
20260904200049 35 327 1.6 11.3 0.00 0.00 0.00 52 1014.8
20260904195537 35 215 6.4 11.3 0.00 0.00 0.00 53 1014.8
20260904195040 35 223 3.2 8.0 0.00 0.00 0.00 53 1014.8
20260904194609 35 202 1.6 12.9 0.00 0.00 0.00 56 1013.4
20260904194549 35 202 1.6 12.9 0.00 0.00 0.00 56 1015.0
20260904194044 35 170 8.0 12.9 0.00 0.00 0.00 56 1015.1
20260904193553 35 200 1.6 9.7 0.00 0.00 0.00 57 1015.1
20260904193042 35 244 3.2 9.7 0.00 0.00 0.00 56 1015.3
20260904193020 35 336 1.6 9.7 0.00 0.00 0.00 55 1013.9
20260904192530 35 310 1.6 8.0 0.00 0.00 0.00 56 1015.4
20260904192032 35 207 3.2 14.5 0.00 0.00 0.00 56 1015.5
20260904190549 35 215 6.4 12.9 0.00 0.00 0.00 56 1015.8
20260904190118 34 200 6.4 9.7 0.00 0.00 0.00 57 1014.3
20260904190100 34 205 6.4 9.7 0.00 0.00 0.00 57 1015.8
20260904185546 34 200 4.8 8.0 0.00 0.00 0.00 58 1015.9
20260904185041 34 209 0.0 4.8 0.00 0.00 0.00 60 1015.9
20260904184654 34 209 0.0 8.0 0.00 0.00 0.00 56 1014.5
20260904184530 34 215 0.0 11.3 0.00 0.00 0.00 57 1015.9
20260904184047 35 202 1.6 11.3 0.00 0.00 0.00 55 1016.0
20260904183537 35 278 6.4 9.7 0.00 0.00 0.00 53 1016.1
20260904183114 34 194 1.6 8.0 0.00 0.00 0.00 55 1014.5
20260904183041 34 334 3.2 8.0 0.00 0.00 0.00 54 1016.0
20260904182551 34 19 1.6 12.9 0.00 0.00 0.00 56 1016.2
20260904182101 34 174 4.8 9.7 0.00 0.00 0.00 55 1016.2
20260904181545 34 306 4.8 8.0 0.00 0.00 0.00 54 1014.7
20260904181532 34 315 4.8 8.0 0.00 0.00 0.00 54 1016.2
20260904181031 35 291 3.2 12.9 0.00 0.00 0.00 54 1016.2
20260904180614 35 302 1.6 16.1 0.00 0.00 0.00 54 1016.3
20260904180122 34 230 6.4 16.1 0.00 0.00 0.00 54 1014.9
20260904180104 34 267 6.4 16.1 0.00 0.00 0.00 54 1016.3
20260904175550 34 271 3.2 14.5 0.00 0.00 0.00 55 1016.4
20260904175034 34 270 4.8 14.5 0.00 0.00 0.00 56 1016.5
20260904174639 33 350 6.4 14.5 0.00 0.00 0.00 55 1015.0
20260904174549 34 294 6.4 14.5 0.00 0.00 0.00 56 1016.5
20260904174041 34 327 6.4 14.5 0.00 0.00 0.00 55 1016.6
20260904173532 34 201 8.0 12.9 0.00 0.00 0.00 55 1016.6